Weather History for Fort Rucker / Ozark, AL

Change the Weather History Date:

Wednesday, April 23, 2014

  Actual Average (KOZR) Record (KOZR)
Temperature  
Mean Temperature 70 °F -  
Max Temperature 82 °F 75 °F 88 °F (2011)
Min Temperature 57 °F 53 °F 46 °F (1998)
Cooling Degree Days 4    
Growing Degree Days 20 (Base 50)    
Moisture  
Dew Point 58 °F    
Average Humidity 78    
Maximum Humidity 100    
Minimum Humidity 38    
Precipitation  
Precipitation 0.00 in - - ()
Sea Level Pressure  
Sea Level Pressure 29.67 in    
Wind  
Wind Speed 2 mph (NW)    
Max Wind Speed 10 mph    
Max Gust Speed -    
Visibility 7 miles    
Events Fog    
Averages and records for this station are not official NWS values.
T = Trace of Precipitation, MM = Missing Value Source: NWS Daily Summary

Daily Weather History Graph

Daily Weather History Graph

Search for Another Location

Airport:

Trip Planner

Search our weather history database for the weather conditions in past years. The results will help you decide how hot, cold, wet, or windy it might be!

Date:

Astronomy

Apr. 23, 2014 Rise Set
Actual Time 6:05 AM CDT 7:16 PM CDT
Civil Twilight 5:40 AM CDT 7:41 PM CDT
Nautical Twilight 5:10 AM CDT 8:12 PM CDT
Astronomical Twilight 4:39 AM CDT 8:43 PM CDT
Moon 2:13 AM CDT (4/23) 1:46 PM CDT (4/23)
Length of Visible Light 14h 01m
Length of Day
13h 11m
Waning Crescent, 34% of the Moon is Illuminated
Apr 23
Waning Crescent
Apr 29
New
May 6
First Quarter
May 14
Full
May 21
Last Quarter

Hourly Weather History & Observations

Time (CDT) Temp. Heat Index Dew Point Humidity Pressure Visibility Wind Dir Wind Speed Gust Speed Precip Events Conditions
12:53 AM 63.0 °F - 61.0 °F 93% 29.57 in 10.0 mi Calm Calm - N/A   Partly Cloudy
1:53 AM 61.0 °F - 59.0 °F 93% 29.55 in 7.0 mi Calm Calm - N/A   Clear
2:53 AM 60.1 °F - 57.9 °F 93% 29.55 in 8.0 mi NW 3.5 mph - N/A   Clear
3:53 AM 57.9 °F - 57.0 °F 97% 29.55 in 7.0 mi Calm Calm - N/A   Clear
4:16 AM 59.0 °F - 57.0 °F 93% 29.89 in 2.5 mi Calm Calm - N/A   Scattered Clouds
4:53 AM 57.9 °F - 55.9 °F 93% 29.57 in 6.0 mi WNW 3.5 mph - N/A   Clear
5:14 AM 57.0 °F - 55.9 °F 96% 29.90 in 1.8 mi Calm Calm - N/A   Clear
5:23 AM 57.9 °F - 55.9 °F 93% 29.90 in 1.0 mi West 3.5 mph - N/A   Mist
5:31 AM 59.0 °F - 57.9 °F 96% 29.91 in 0.2 mi West 3.5 mph - N/A Fog Fog
5:53 AM 59.0 °F - 59.0 °F 100% 29.58 in 0.2 mi Calm Calm - N/A Fog Fog
6:30 AM 57.9 °F - 57.9 °F 100% 29.93 in 1.0 mi NW 4.6 mph - N/A   Mist
6:36 AM 59.0 °F - 57.9 °F 96% 29.93 in 2.5 mi NW 4.6 mph - N/A   Scattered Clouds
6:43 AM 59.0 °F - 57.9 °F 96% 29.94 in 3.0 mi WNW 3.5 mph - N/A   Scattered Clouds
6:53 AM 59.0 °F - 57.9 °F 96% 29.62 in 2.0 mi Calm Calm - N/A   Clear
7:26 AM 61.0 °F - 60.1 °F 97% 29.95 in 3.0 mi WNW 3.5 mph - N/A   Clear
7:53 AM 63.0 °F - 61.0 °F 93% 29.62 in 6.0 mi Calm Calm - N/A   Clear
8:53 AM 70.0 °F - 63.0 °F 78% 29.63 in 10.0 mi North 5.8 mph - N/A   Clear
9:53 AM 73.9 °F - 62.1 °F 66% 29.64 in 10.0 mi North 4.6 mph - N/A   Clear
10:53 AM 75.0 °F - 61.0 °F 62% 29.63 in 10.0 mi Calm Calm - N/A   Scattered Clouds
11:53 AM 78.1 °F - 61.0 °F 56% 29.62 in 10.0 mi NE 5.8 mph - N/A   Mostly Cloudy
12:53 PM 80.1 °F 80.6 °F 57.9 °F 47% 29.60 in 10.0 mi Variable 4.6 mph - N/A   Partly Cloudy
1:53 PM 79.0 °F - 57.0 °F 47% 29.59 in 10.0 mi North 9.2 mph - N/A   Mostly Cloudy
2:53 PM 82.9 °F 82.0 °F 55.0 °F 38% 29.57 in 10.0 mi NNW 10.4 mph - N/A   Clear
3:53 PM 82.9 °F 82.1 °F 55.9 °F 39% 29.55 in 10.0 mi Variable 4.6 mph - N/A   Mostly Cloudy
4:53 PM 82.0 °F 81.3 °F 54.0 °F 38% 29.55 in 10.0 mi Variable 4.6 mph - N/A   Clear
5:53 PM 81.0 °F 80.7 °F 55.0 °F 41% 29.55 in 10.0 mi NNW 5.8 mph - N/A   Clear
6:53 PM 77.0 °F - 57.9 °F 52% 29.55 in 10.0 mi Calm Calm - N/A   Clear
7:53 PM 71.1 °F - 61.0 °F 70% 29.57 in 10.0 mi NNW 4.6 mph - N/A   Clear
8:53 PM 66.9 °F - 60.1 °F 79% 29.59 in 10.0 mi North 3.5 mph - N/A   Clear
9:53 PM 66.0 °F - 59.0 °F 78% 29.60 in 10.0 mi Calm Calm - N/A   Clear
10:53 PM 63.0 °F - 59.0 °F 87% 29.60 in 10.0 mi Calm Calm - N/A   Clear
11:53 PM 62.1 °F - 59.0 °F 90% 29.61 in 9.0 mi SSW 3.5 mph - N/A   Clear